SCP
-0 -0 -0 -0 -0 0 -0 -0 -0 -0 -0 -0 -0 -0 -0 0 0 0 0 0 0 0 0 0 0 0 0 0 0 0 0 0 0 0 0 0 0 0 0 0 0 0 0
-0 -0 -0 -0 -0 -0 -0 -0 -0 -0 -0 -0 0 0 0 0 0 0 0 0 0 0 0 0 0 0 0 0 0 0 0 0 0 0 0 0 0 0 0 0 0 0 0
-0 -0 -0 -0 -0 -0 -0 -0 -0 -0 -0 -0 0 0 0 0 0 0 0 0 0 0 0 0 0 0 0 0 0 0 0 0 0 0 0 0 0 0 0 0 0 0 0
-0 -0 -0 -0 -0 -0 -0 -0 -0 -0 -0 -0 0 0 0 0 0 0 0 0 0 0 0 0 0 0 0 0 0 0 0 0 0 0 0 0 0 0 0 0 0 0 0
-0 -0 -0 -0 -0 -0 -0 -0 -0 -0 -0 0 0 0 0 0 0 0 0 0 0 0 0 0 0 0 0 0 0 0 0 0 0 0 0 0 0 0 0 0 0 0 0
-0 0 -0 -0 0 0 -0 -0 -0 -0 0 0 0 0 0 0 0 0 0 0 0 0 0 0 0 0 0 0 0 0 0 0 0 0 0 0 0 0 0 0 0 0 0
-0 -0 -0 -0 -0 -0 -0 -0 0 0 0 0 0 0 0 0 0 0 0 0 0 0 0 0 0 0 0 0 0 0 0 0 0 0 0 0 0 0 0 0 0 0 0
-0 -0 -0 -0 -0 -0 -0 0 0 0 0 0 0 0 0 0 0 0 0 0 0 0 0 0 0 0 0 0 0 0 0 0 0 0 0 0 0 0 0 0 0 0 0
-0 -0 -0 -0 -0 -0 -0 0 0 0 0 0 0 0 0 0 0 0 0 0 0 0 0 0 0 0 0 0 0 0 0 0 0 0 0 0 0 0 0 0 0 0 0
0 -0 -0 -0 -0 -0 0 0 0 0 0 0 0 0 0 0 0 0 0 0 0 0 0 0 0 0 0 0 0 0 0 0 0 0 0 0 0 0 0 0 0 0 0
0 0 0 0 0 0 0 0 0 0 0 0 0 0 0 0 0 0 0 0 0 0 0 0 0 0 0 0 0 0 0 0 0 0 0 0 0 0 0 0 0 0 0
0 0 0 0 0 0 0 0 0 0 0 0 0 0 0 0 0 0 0 0 0 0 0 0 0 0 0 0 0 0 0 0 0 0 0 0 0 0 0 0 0 0 0
0 0 0 0 0 0 0 0 0 0 0 0 0 0 0 0 0 0 0 0 0 0 0 0 0 0 0 0 0 0 0 0 0 0 0 0 0 0 0 0 0 0 0
0 0 0 0 0 0 0 0 0 0 0 0 0 0 0 0 0 0 0 0 0 0 0 0 0 0 0 0 0 0 0 0 0 0 0 0 0 0 0 0 0 0 0
0 0 0 0 0 0 0 0 0 0 0 0 0 0 0 0 0 0 0 0 0 0 0 0 0 0 0 0 0 0 0 0 0 0 0 0 0 0 0 0 0 0 0
0 0 0 0 0 0 0 0 0 0 0 0 0 0 0 0 0 0 0 0 0 0 0 0 0 0 0 0 0 0 0 0 0 0 0 0 0 0 0 0 0 0 0
0 0 0 0 0 0 0 0 0 0 0 0 0 0 0 0 0 0 0 0 0 0 0 0 0 0 0 0 0 0 0 0 0 0 0 0 0 0 0 0 0 0 0
0 0 0 0 0 0 0 0 0 0 0 0 0 0 0 0 0 0 0 0 0 0 0 0 0 0 0 0 0 0 0 0 0 0 0 0 0 0 0 0 0 0 0
0 0 0 0 0 0 0 0 0 0 0 0 0 0 0 0 0 0 0 0 0 0 0 0 0 0 0 0 0 0 0 0 0 0 0 0 0 0 0 0 0 0 0
0 0 0 0 0 0 0 0 0 0 0 0 0 0 0 0 0 0 0 0 0 0 0 0 0 0 0 0 0 0 0 0 0 0 0 0 0 0 0 0 0 0 0
0 0 0 0 0 0 0 0 0 0 0 0 0 0 0 0 0 0 0 0 0 0 0 0 0 0 0 0 0 0 0 0 0 0 0 0 0 0 0 0 0 0 0
0 0 0 0 0 0 0 0 0 0 0 0 0 0 0 0 0 0 0 0 0 0 0 0 0 0 0 0 0 0 0 0 0 0 0 0 0 0 0 0 0 0 0
0 0 0 0 0 0 0 0 0 0 0 0 0 0 0 0 0 0 0 0 0 0 0 0 0 0 0 0 0 0 0 0 0 0 0 0 0 0 0 0 0 0 0
0 0 0 0 0 0 0 0 0 0 0 0 0 0 0 0 0 0 0 0 0 0 0 0 0 0 0 0 0 0 0 0 0 0 0 0 0 0 0 0 0 0 0
0 0 0 0 0 0 0 0 0 0 0 0 0 0 0 0 0 0 0 0 0 0 0 0 0 0 0 0 0 0 0 0 0 0 0 0 0 0 0 0 0 0 0
0 0 0 0 0 0 0 0 0 0 0 0 0 0 0 0 0 0 0 0 0 0 0 0 0 0 0 0 0 0 0 0 0 0 0 0 0 0 0 0 0 0 0
Wind_Speed_500mb
63 62 60 55 58 55 55 55 57 57 59 62 59 50 37 32 33 35 30 29 27 21 10 10 16 23 30 36 38 36 35 35 34 30 22 26 31 25 22 31 29 34 39
70 73 69 64 62 58 61 64 62 63 65 61 56 49 35 36 37 36 34 30 25 19 16 13 18 27 37 41 41 40 39 39 34 28 27 12 20 27 37 24 37 31 27
81 79 78 76 72 76 67 72 75 70 69 65 58 45 37 41 44 42 40 35 29 26 19 19 24 32 38 38 38 38 37 32 31 26 16 12 9 20 32 21 28 23 29
79 81 83 83 78 79 66 66 71 75 74 68 63 54 49 53 52 46 43 37 31 26 23 25 30 34 35 34 37 33 28 23 21 21 20 21 25 24 19 25 28 34 29
87 86 91 89 83 80 76 71 75 76 73 68 64 61 59 55 52 50 47 40 37 35 30 30 32 30 27 27 30 27 23 19 19 23 27 30 26 26 31 34 24 30 33
87 87 90 87 88 84 81 80 77 74 70 70 69 72 70 60 59 56 52 47 42 35 31 29 25 23 23 38 32 25 24 26 29 26 23 25 23 25 27 33 38 39 35
87 75 84 91 91 92 88 83 77 77 72 77 78 72 72 67 66 63 59 51 42 34 31 25 21 30 47 31 23 22 26 29 28 28 26 26 30 28 31 35 38 38 40
75 80 85 89 96 89 90 85 81 74 73 74 78 77 73 77 71 65 56 48 41 34 25 19 31 41 26 22 24 25 26 23 28 30 30 32 36 31 34 40 39 44 50
56 76 80 84 91 87 92 89 78 83 72 76 72 72 67 76 77 66 58 52 43 33 26 33 39 23 25 25 25 26 25 25 29 30 33 36 31 32 34 38 43 48 53
43 62 76 77 83 84 85 91 72 65 58 67 71 70 66 66 73 69 65 55 43 40 33 17 13 25 22 25 40 25 21 24 33 39 36 28 33 31 34 36 39 43 43
42 53 61 69 79 73 78 84 84 79 70 67 74 76 73 67 70 64 57 47 41 31 15 16 19 16 24 33 24 22 24 29 41 35 31 30 30 32 33 37 37 40 45
46 51 63 76 75 74 76 77 76 67 74 75 73 74 65 62 66 62 58 53 42 30 22 17 14 20 17 24 23 21 22 28 35 33 38 38 40 38 43 39 41 42 45
41 56 63 71 76 76 75 75 74 67 77 80 76 67 60 62 66 61 60 51 42 30 24 17 13 15 30 23 20 23 28 34 37 33 38 42 42 44 38 42 44 47 51
37 52 64 71 72 73 78 75 77 83 76 85 74 66 63 60 61 59 55 50 44 30 24 12 13 24 25 26 29 29 36 41 43 41 39 40 42 41 43 42 47 51 47
21 37 54 58 61 68 71 72 77 83 84 77 76 69 60 60 62 56 52 41 35 27 17 12 28 25 33 34 38 43 43 44 45 42 40 40 44 47 47 47 49 46 42
19 8 7 23 35 50 66 77 78 79 80 73 68 69 66 62 60 54 45 45 33 27 18 19 27 36 40 41 41 47 49 43 46 45 46 51 42 47 46 49 49 41 39
19 14 11 7 3 7 17 31 49 67 67 62 69 73 69 64 57 56 55 46 36 27 20 43 28 40 45 44 43 42 48 50 45 48 49 43 44 46 46 49 43 38 40
23 17 14 15 17 17 16 22 34 49 57 66 67 63 60 59 62 60 51 42 30 26 47 38 41 48 47 42 41 42 43 46 48 46 49 42 41 42 46 41 38 38 39
11 13 17 19 22 24 25 30 37 46 53 54 54 56 59 57 46 26 18 22 32 49 42 39 45 47 48 48 44 41 38 44 44 46 50 40 41 40 41 38 38 39 37
3 6 10 14 20 23 25 25 29 36 39 43 43 42 46 45 46 44 33 41 53 46 40 42 46 52 53 47 35 29 34 42 43 49 45 42 39 39 37 38 37 39 35
3 2 6 10 11 15 17 15 14 19 26 32 36 33 29 39 33 40 52 53 30 36 43 49 46 47 44 38 34 32 35 39 43 47 46 40 37 37 36 35 36 34 35
10 9 8 10 11 11 7 8 14 23 21 19 21 32 33 37 45 37 24 24 39 48 49 48 47 44 44 40 37 38 38 39 45 49 47 42 39 37 35 35 32 33 34
18 19 19 22 26 24 20 22 21 10 1 11 24 25 20 12 18 28 36 40 42 44 47 49 53 50 41 37 40 41 45 49 52 51 51 47 47 42 40 37 35 34 34
21 19 17 19 22 18 14 13 10 7 8 9 13 18 22 26 30 34 37 41 42 45 49 52 55 54 51 48 41 43 53 58 61 58 59 59 57 51 49 43 41 39 35
21 19 19 20 22 19 16 12 9 8 10 14 17 20 22 27 32 35 39 43 47 50 56 59 57 59 64 58 53 51 50 53 61 65 66 69 71 62 61 51 45 43 39
25 22 23 21 18 10 9 9 12 17 22 26 29 31 36 40 45 50 57 53 56 57 55 57 62 68 69 67 62 59 62 61 54 61 67 68 72 73 67 59 50 45 44
Wind_Direction_500mb
198 195 196 197 194 193 197 197 198 198 198 199 203 206 216 218 205 195 195 197 203 209 226 285 324 325 321 318 313 311 313 314 315 316 316 308 304 288 286 297 298 313 307
202 201 200 198 199 197 201 204 202 201 204 212 216 219 233 217 205 200 200 204 212 221 239 281 302 310 313 311 310 311 313 312 313 316 316 296 284 264 283 287 295 309 299
204 204 203 203 203 202 203 206 205 207 212 217 218 219 222 205 201 205 212 213 217 225 246 275 291 302 307 310 308 309 309 307 308 308 303 302 273 284 288 277 292 284 286
210 211 208 206 206 207 208 206 207 209 212 216 220 226 227 217 216 220 219 224 228 235 259 276 289 298 302 306 308 303 301 300 305 307 298 291 286 298 290 294 280 291 306
209 210 214 214 210 208 211 210 210 212 214 218 223 229 224 230 226 223 224 226 230 239 261 278 288 299 310 314 308 308 312 307 305 301 296 296 295 295 292 294 296 287 300
216 216 218 216 215 213 214 211 213 216 217 219 224 230 235 228 223 226 226 229 233 243 259 275 290 303 320 309 297 299 303 305 311 315 313 310 303 302 287 289 296 295 296
217 211 217 218 218 218 218 215 217 220 219 222 225 230 237 239 234 236 234 230 236 244 257 273 293 313 307 291 289 293 303 310 314 314 318 322 311 301 282 289 293 289 296
220 213 218 220 222 222 223 220 221 228 223 223 226 230 237 238 235 234 232 233 233 243 257 267 305 317 293 294 292 293 296 302 310 313 314 317 313 305 291 291 289 292 295
219 220 217 225 222 224 228 223 230 231 227 224 232 231 233 228 230 228 227 231 236 244 244 277 313 292 297 298 293 293 287 294 308 309 305 306 300 308 294 296 288 291 304
216 220 224 227 226 228 227 228 234 235 238 237 235 227 221 223 225 228 228 230 240 240 264 296 291 292 292 308 304 290 294 313 318 310 307 301 302 294 295 289 287 292 294
213 218 220 224 221 224 222 226 232 229 233 232 231 229 224 222 219 224 227 231 237 256 260 272 281 293 310 294 292 288 300 307 320 318 308 304 292 298 300 295 290 293 297
215 216 215 214 219 223 227 231 232 234 239 234 229 227 227 223 224 224 231 240 242 238 254 249 291 302 300 297 285 287 303 315 314 312 299 295 294 295 302 295 298 298 300
228 220 219 224 227 230 232 233 238 244 233 229 228 226 225 229 224 231 239 235 237 243 235 250 284 299 297 289 288 296 291 291 304 303 291 289 290 299 299 300 300 302 305
233 229 227 230 233 237 237 237 238 235 240 228 230 232 236 229 235 239 235 238 239 248 230 246 281 305 290 291 302 296 290 285 292 299 287 290 295 300 303 301 303 305 305
240 240 237 239 241 242 244 245 242 238 237 243 234 240 234 239 238 237 234 237 231 214 216 231 304 288 287 286 289 290 288 285 286 287 279 288 295 298 301 300 303 304 302
100 99 259 264 268 269 268 260 253 245 241 241 240 236 233 238 232 227 227 215 204 201 198 275 299 272 278 280 279 283 279 276 278 278 274 295 287 291 295 297 303 300 302
88 75 67 68 5 314 304 283 276 263 253 245 238 234 232 230 223 219 210 196 188 199 253 304 274 277 289 281 285 283 274 263 275 274 281 293 282 290 295 297 297 295 299
75 60 36 14 354 331 305 279 269 260 249 236 231 231 227 221 215 204 194 196 219 268 312 293 275 287 291 288 287 280 271 259 267 271 285 288 280 291 297 291 287 289 294
36 10 357 357 352 334 311 281 264 248 238 232 231 227 222 207 184 177 189 231 282 301 291 273 289 291 292 292 290 281 264 265 267 273 288 279 285 294 295 285 285 288 298
57 353 344 344 342 341 331 300 261 244 234 228 220 204 184 181 193 225 251 280 292 277 273 292 292 294 296 294 288 267 266 266 269 281 280 278 284 292 291 282 282 289 302
138 26 344 343 16 355 328 300 243 207 191 185 177 172 196 224 248 268 277 280 271 275 290 291 295 296 294 288 276 263 265 268 278 275 274 271 282 292 290 280 282 292 299
114 91 77 74 72 64 18 111 136 137 153 173 204 240 267 281 285 281 276 289 283 285 288 290 293 292 289 282 273 264 265 272 272 274 276 269 278 289 288 282 281 292 292
118 104 96 97 94 93 94 112 111 113 340 310 305 311 312 307 294 285 286 285 285 285 287 288 292 294 294 287 274 265 267 269 272 271 273 269 269 280 282 280 276 286 285
116 106 104 102 100 92 88 81 72 49 25 5 340 324 313 305 300 298 296 292 290 289 287 289 292 293 290 289 292 275 268 270 273 273 266 263 263 268 275 276 273 277 281
117 110 100 97 94 94 93 83 60 27 359 345 332 322 314 310 306 301 300 296 293 294 294 291 291 289 287 287 290 287 280 269 271 276 275 265 259 260 267 273 274 270 273
116 111 103 102 97 83 55 24 355 339 330 322 317 314 308 304 301 300 297 289 287 288 286 288 290 290 287 289 288 288 283 275 274 269 270 266 264 258 265 268 272 268 266
Wind_Speed_850mb
63 62 60 55 58 55 55 55 57 57 59 62 59 50 37 32 33 35 30 29 27 21 10 10 16 23 30 36 38 36 35 35 34 30 22 26 31 25 22 31 29 34 39
70 73 69 64 62 58 61 64 62 63 65 61 56 49 35 36 37 36 34 30 25 19 16 13 18 27 37 41 41 40 39 39 34 28 27 12 20 27 37 24 37 31 27
81 79 78 76 72 76 67 72 75 70 69 65 58 45 37 41 44 42 40 35 29 26 19 19 24 32 38 38 38 38 37 32 31 26 16 12 9 20 32 21 28 23 29
79 81 83 83 78 79 66 66 71 75 74 68 63 54 49 53 52 46 43 37 31 26 23 25 30 34 35 34 37 33 28 23 21 21 20 21 25 24 19 25 28 34 29
87 86 91 89 83 80 76 71 75 76 73 68 64 61 59 55 52 50 47 40 37 35 30 30 32 30 27 27 30 27 23 19 19 23 27 30 26 26 31 34 24 30 33
87 87 90 87 88 84 81 80 77 74 70 70 69 72 70 60 59 56 52 47 42 35 31 29 25 23 23 38 32 25 24 26 29 26 23 25 23 25 27 33 38 39 35
87 75 84 91 91 92 88 83 77 77 72 77 78 72 72 67 66 63 59 51 42 34 31 25 21 30 47 31 23 22 26 29 28 28 26 26 30 28 31 35 38 38 40
75 80 85 89 96 89 90 85 81 74 73 74 78 77 73 77 71 65 56 48 41 34 25 19 31 41 26 22 24 25 26 23 28 30 30 32 36 31 34 40 39 44 50
56 76 80 84 91 87 92 89 78 83 72 76 72 72 67 76 77 66 58 52 43 33 26 33 39 23 25 25 25 26 25 25 29 30 33 36 31 32 34 38 43 48 53
43 62 76 77 83 84 85 91 72 65 58 67 71 70 66 66 73 69 65 55 43 40 33 17 13 25 22 25 40 25 21 24 33 39 36 28 33 31 34 36 39 43 43
42 53 61 69 79 73 78 84 84 79 70 67 74 76 73 67 70 64 57 47 41 31 15 16 19 16 24 33 24 22 24 29 41 35 31 30 30 32 33 37 37 40 45
46 51 63 76 75 74 76 77 76 67 74 75 73 74 65 62 66 62 58 53 42 30 22 17 14 20 17 24 23 21 22 28 35 33 38 38 40 38 43 39 41 42 45
41 56 63 71 76 76 75 75 74 67 77 80 76 67 60 62 66 61 60 51 42 30 24 17 13 15 30 23 20 23 28 34 37 33 38 42 42 44 38 42 44 47 51
37 52 64 71 72 73 78 75 77 83 76 85 74 66 63 60 61 59 55 50 44 30 24 12 13 24 25 26 29 29 36 41 43 41 39 40 42 41 43 42 47 51 47
21 37 54 58 61 68 71 72 77 83 84 77 76 69 60 60 62 56 52 41 35 27 17 12 28 25 33 34 38 43 43 44 45 42 40 40 44 47 47 47 49 46 42
19 8 7 23 35 50 66 77 78 79 80 73 68 69 66 62 60 54 45 45 33 27 18 19 27 36 40 41 41 47 49 43 46 45 46 51 42 47 46 49 49 41 39
19 14 11 7 3 7 17 31 49 67 67 62 69 73 69 64 57 56 55 46 36 27 20 43 28 40 45 44 43 42 48 50 45 48 49 43 44 46 46 49 43 38 40
23 17 14 15 17 17 16 22 34 49 57 66 67 63 60 59 62 60 51 42 30 26 47 38 41 48 47 42 41 42 43 46 48 46 49 42 41 42 46 41 38 38 39
11 13 17 19 22 24 25 30 37 46 53 54 54 56 59 57 46 26 18 22 32 49 42 39 45 47 48 48 44 41 38 44 44 46 50 40 41 40 41 38 38 39 37
3 6 10 14 20 23 25 25 29 36 39 43 43 42 46 45 46 44 33 41 53 46 40 42 46 52 53 47 35 29 34 42 43 49 45 42 39 39 37 38 37 39 35
3 2 6 10 11 15 17 15 14 19 26 32 36 33 29 39 33 40 52 53 30 36 43 49 46 47 44 38 34 32 35 39 43 47 46 40 37 37 36 35 36 34 35
10 9 8 10 11 11 7 8 14 23 21 19 21 32 33 37 45 37 24 24 39 48 49 48 47 44 44 40 37 38 38 39 45 49 47 42 39 37 35 35 32 33 34
18 19 19 22 26 24 20 22 21 10 1 11 24 25 20 12 18 28 36 40 42 44 47 49 53 50 41 37 40 41 45 49 52 51 51 47 47 42 40 37 35 34 34
21 19 17 19 22 18 14 13 10 7 8 9 13 18 22 26 30 34 37 41 42 45 49 52 55 54 51 48 41 43 53 58 61 58 59 59 57 51 49 43 41 39 35
21 19 19 20 22 19 16 12 9 8 10 14 17 20 22 27 32 35 39 43 47 50 56 59 57 59 64 58 53 51 50 53 61 65 66 69 71 62 61 51 45 43 39
25 22 23 21 18 10 9 9 12 17 22 26 29 31 36 40 45 50 57 53 56 57 55 57 62 68 69 67 62 59 62 61 54 61 67 68 72 73 67 59 50 45 44
Wind_Direction_850mb
198 195 196 197 194 193 197 197 198 198 198 199 203 206 216 218 205 195 195 197 203 209 226 285 324 325 321 318 313 311 313 314 315 316 316 308 304 288 286 297 298 313 307
202 201 200 198 199 197 201 204 202 201 204 212 216 219 233 217 205 200 200 204 212 221 239 281 302 310 313 311 310 311 313 312 313 316 316 296 284 264 283 287 295 309 299
204 204 203 203 203 202 203 206 205 207 212 217 218 219 222 205 201 205 212 213 217 225 246 275 291 302 307 310 308 309 309 307 308 308 303 302 273 284 288 277 292 284 286
210 211 208 206 206 207 208 206 207 209 212 216 220 226 227 217 216 220 219 224 228 235 259 276 289 298 302 306 308 303 301 300 305 307 298 291 286 298 290 294 280 291 306
209 210 214 214 210 208 211 210 210 212 214 218 223 229 224 230 226 223 224 226 230 239 261 278 288 299 310 314 308 308 312 307 305 301 296 296 295 295 292 294 296 287 300
216 216 218 216 215 213 214 211 213 216 217 219 224 230 235 228 223 226 226 229 233 243 259 275 290 303 320 309 297 299 303 305 311 315 313 310 303 302 287 289 296 295 296
217 211 217 218 218 218 218 215 217 220 219 222 225 230 237 239 234 236 234 230 236 244 257 273 293 313 307 291 289 293 303 310 314 314 318 322 311 301 282 289 293 289 296
220 213 218 220 222 222 223 220 221 228 223 223 226 230 237 238 235 234 232 233 233 243 257 267 305 317 293 294 292 293 296 302 310 313 314 317 313 305 291 291 289 292 295
219 220 217 225 222 224 228 223 230 231 227 224 232 231 233 228 230 228 227 231 236 244 244 277 313 292 297 298 293 293 287 294 308 309 305 306 300 308 294 296 288 291 304
216 220 224 227 226 228 227 228 234 235 238 237 235 227 221 223 225 228 228 230 240 240 264 296 291 292 292 308 304 290 294 313 318 310 307 301 302 294 295 289 287 292 294
213 218 220 224 221 224 222 226 232 229 233 232 231 229 224 222 219 224 227 231 237 256 260 272 281 293 310 294 292 288 300 307 320 318 308 304 292 298 300 295 290 293 297
215 216 215 214 219 223 227 231 232 234 239 234 229 227 227 223 224 224 231 240 242 238 254 249 291 302 300 297 285 287 303 315 314 312 299 295 294 295 302 295 298 298 300
228 220 219 224 227 230 232 233 238 244 233 229 228 226 225 229 224 231 239 235 237 243 235 250 284 299 297 289 288 296 291 291 304 303 291 289 290 299 299 300 300 302 305
233 229 227 230 233 237 237 237 238 235 240 228 230 232 236 229 235 239 235 238 239 248 230 246 281 305 290 291 302 296 290 285 292 299 287 290 295 300 303 301 303 305 305
240 240 237 239 241 242 244 245 242 238 237 243 234 240 234 239 238 237 234 237 231 214 216 231 304 288 287 286 289 290 288 285 286 287 279 288 295 298 301 300 303 304 302
100 99 259 264 268 269 268 260 253 245 241 241 240 236 233 238 232 227 227 215 204 201 198 275 299 272 278 280 279 283 279 276 278 278 274 295 287 291 295 297 303 300 302
88 75 67 68 5 314 304 283 276 263 253 245 238 234 232 230 223 219 210 196 188 199 253 304 274 277 289 281 285 283 274 263 275 274 281 293 282 290 295 297 297 295 299
75 60 36 14 354 331 305 279 269 260 249 236 231 231 227 221 215 204 194 196 219 268 312 293 275 287 291 288 287 280 271 259 267 271 285 288 280 291 297 291 287 289 294
36 10 357 357 352 334 311 281 264 248 238 232 231 227 222 207 184 177 189 231 282 301 291 273 289 291 292 292 290 281 264 265 267 273 288 279 285 294 295 285 285 288 298
57 353 344 344 342 341 331 300 261 244 234 228 220 204 184 181 193 225 251 280 292 277 273 292 292 294 296 294 288 267 266 266 269 281 280 278 284 292 291 282 282 289 302
138 26 344 343 16 355 328 300 243 207 191 185 177 172 196 224 248 268 277 280 271 275 290 291 295 296 294 288 276 263 265 268 278 275 274 271 282 292 290 280 282 292 299
114 91 77 74 72 64 18 111 136 137 153 173 204 240 267 281 285 281 276 289 283 285 288 290 293 292 289 282 273 264 265 272 272 274 276 269 278 289 288 282 281 292 292
118 104 96 97 94 93 94 112 111 113 340 310 305 311 312 307 294 285 286 285 285 285 287 288 292 294 294 287 274 265 267 269 272 271 273 269 269 280 282 280 276 286 285
116 106 104 102 100 92 88 81 72 49 25 5 340 324 313 305 300 298 296 292 290 289 287 289 292 293 290 289 292 275 268 270 273 273 266 263 263 268 275 276 273 277 281
117 110 100 97 94 94 93 83 60 27 359 345 332 322 314 310 306 301 300 296 293 294 294 291 291 289 287 287 290 287 280 269 271 276 275 265 259 260 267 273 274 270 273
116 111 103 102 97 83 55 24 355 339 330 322 317 314 308 304 301 300 297 289 287 288 286 288 290 290 287 289 288 288 283 275 274 269 270 266 264 258 265 268 272 268 266